Location: Fauquembergues
(50.6005°N, 2.0987°E)
Time: 10:57:40
(UTC+00:00)

Cosmos 2360 - Pass Details

Date: 14 July 2020
Orbit: 844 x 858 km, 70.8° (Epoch: 06 August)

Event Time Altitude Azimuth Distance (km) Brightness Sun altitude
Rises 02:33:39 0° 327° (NNW) 3,443 7.7 -10.0°
Reaches altitude 10° 02:36:11 10° 322° (NW) 2,503 6.9 -9.8°
Maximum altitude 02:41:41 48° 249° (WSW) 1,110 4.5 -9.2°
Drops below altitude 10° 02:47:09 10° 177° (S) 2,486 6.2 -8.7°
Sets 02:49:39 0° 172° (S) 3,417 7.0 -8.4°
